ha-er-bin , China , ASIA

  • Wednesday
    September 20

      Sunny

      54 °F

      West

       

  • Thursday
    September 21

    Sunny  Cloudy

    75 °F  59 °F

    South  South

    4~5L   3~4L 

  • Friday
    September 22

    Thundershower  Cloudy

    70 °F  46 °F

    South  West

    5~6L   4~5L 

  • Saturday
    September 23

    Cloudy  Sunny

    72 °F  52 °F

    West  West

    4~5L   3~4L 

  • Sunday
    September 24

    Cloudy  Cloudy

    72 °F  46 °F

    Southwest  South

    3~4L   3~4L 

  • Monday
    September 25

    Sunny  Cloudy

    72 °F  52 °F

    Southwest  West

        

  • Tuesday
    September 26

    Shower  Cloudy

    68 °F  50 °F

    West  Northwest

    3~4L    

Date   Weather Temperature Humidity Total_rain Visibility Wind
23:00 Sunny 56°F 96.2% 0mm 12km Southwest  0.7m/s
02:00 Sunny 54°F 98% 0mm 12km Southwest  0.7m/s
05:00 Sunny 55°F 97.1% 0mm 12km Southwest  1.5m/s
08:00 Sunny 64°F 85.7% 0mm 12km Southwest  2.4m/s
11:00 Sunny 73°F 72% 0mm 12km Southwest  3.3m/s
14:00 Sunny 75°F 70.4% 0mm 12km Southwest  4.8m/s
17:00 Sunny 72°F 72% 0mm 12km Southeast  3.0m/s
20:00 Sunny 67°F 64.6% 0mm 12km Southeast  2.5m/s
23:00 Cloudy 63°F 75.3% 0mm 12km Southeast  4.2m/s
02:00 Cloudy 65°F 74.5% 0mm 4km Southwest  3.8m/s
05:00 Cloudy 65°F 74.4% 0mm 12km Southwest  4.9m/s
08:00 Cloudy 67°F 74.1% 0mm 8km Southwest  5.9m/s
11:00 Overcast 69°F 73.9% 0mm 8km Southwest  5.0m/s
14:00 Thundershower 67°F 76.1% 0.2mm 8km Southwest  5.4m/s
17:00 Thundershower 63°F 78.9% 1.5mm 8km Southeast  2.3m/s
20:00 Thundershower 59°F 73% 0.5mm 8km Southwest  2.0m/s
23:00 Cloudy 57°F 98% 0mm 12km Northwest  2.9m/s
02:00 Cloudy 52°F 93.8% 0mm 12km Northwest  1.9m/s
05:00 Cloudy 47°F 90.9% 0mm 12km Southwest  1.0m/s
08:00 Cloudy 53°F 88% 0mm 8km Southwest  2.7m/s
11:00 Cloudy 67°F 74.5% 0mm 12km Southwest  3.3m/s
14:00 Cloudy 71°F 69.7% 0mm 8km Southwest  3.6m/s
17:00 Cloudy 67°F 67.5% 0mm 8km Southwest  2.3m/s
20:00 Cloudy 60°F 65.3% 0mm 12km Southwest  1.7m/s
23:00 Sunny 58°F 89.2% 0mm 12km Southwest  2.7m/s
02:00 Sunny 58°F 89.8% 0mm 12km Southwest  2.3m/s
05:00 Sunny 57°F 90.4% 0mm 12km Southwest  2.7m/s
08:00 Sunny 62°F 92% 0mm 8km Southwest  3.4m/s
11:00 Cloudy 70°F 82.7% 0mm 8km Southwest  3.9m/s
14:00 Cloudy 71°F 76.8% 0mm 12km Northwest  4.4m/s
17:00 Cloudy 65°F 73.7% 0mm 8km Northwest  2.4m/s
20:00 Cloudy 52°F 70.6% 0mm 12km Northwest  2.2m/s
23:00 Cloudy 50°F 90.6% 0mm 12km Northwest  1.7m/s
02:00 Cloudy 48°F 91.1% 0mm 12km Northwest  1.4m/s
05:00 Cloudy 47°F 88.9% 0mm 12km Northwest  2.3m/s
08:00 Cloudy 53°F 76.3% 0mm 12km Northwest  2.0m/s
11:00 Sunny 71°F 60.6% 0mm 12km Southwest  3.5m/s
14:00 Sunny 63°F 61.9% 0mm 12km Northwest  3.2m/s
17:00 Sunny 53°F 68.3% 0mm 12km Northeast  1.9m/s
20:00 Sunny 59°F 57.4% 0mm 12km Northwest  1.2m/s
23:00 Cloudy 55°F 85.9% 0mm 12km Southeast  1.7m/s
02:00 Cloudy 52°F 96.2% 0mm 12km Southeast  1.7m/s
05:00 Cloudy 55°F 96% 0mm 8km Southwest  0.9m/s
08:00 Cloudy 59°F 77.5% 0mm 12km Southeast  3.2m/s
11:00 Sunny 66°F 53.6% 0mm 12km Southwest  4.2m/s
14:00 Overcast 68°F 58.7% 0mm 12km Southeast  3.2m/s
17:00 Sunny 62°F 62.7% 0mm 12km Southwest  1.2m/s
20:00 Shower 61°F 51.4% 12.4mm 12km Southwest  2.5m/s
23:00 Cloudy 62°F 69.8% 0mm 12km Southwest  1.8m/s
02:00 Cloudy 59°F 98% 0mm 12km Northwest  1.8m/s
05:00 Cloudy 54°F 74.1% 0mm 12km Southwest  1.7m/s